Location: Casteau
(50.5142°N, 4.0161°E)
Time: 04:29:53
(UTC+00:00)

Vanguard 1 Rocket - Pass Details

Date: 01 August 2021
Orbit: 650 x 4226 km, 34.3° (Epoch: 21 September)

Event Time Altitude Azimuth Distance (km) Brightness Sun altitude
Rises 09:11:51 0° 222° (SW) 8,162 12.2 44.7°
Reaches altitude 10° 09:19:00 10° 214° (SW) 6,731 11.9 45.7°
Maximum altitude 09:34:40 30° 164° (SSE) 3,926 11.8 47.7°
Drops below altitude 10° 09:44:24 10° 109° (ESE) 4,154 11.6 48.9°
Sets 09:47:32 0° 99° (E) 4,736 11.6 49.3°
